CFG412 EDDH-EHAM

Flight info

Callsign CFG412
Flight time 1h 0m
Altitude 30000
Route WSN5G WSN N125 BLUFA
Aircraft A320/M-SDE3FGHIRWY/LB1

Departure

Time 2026-05-06 18:25
Airport Hamburg Helmut Schmidt Airport (EDDH)

Arrival

Time 2026-05-06 19:25
Airport Amsterdam Airport Schiphol (EHAM)
Time Latitude Longitude Altitude Speed Heading
2026-05-06 17:39 53.63166 10.00108 51 ft 0 kts 141°
2026-05-06 18:04 53.63166 10.00107 51 ft 0 kts 141°
2026-05-06 18:12 53.63177 10.00092 49 ft 4 kts 144°
2026-05-06 18:12 53.63200 10.00069 46 ft 4 kts 159°
2026-05-06 18:12 53.63225 10.00063 50 ft 4 kts 210°
2026-05-06 18:12 53.63232 10.00070 47 ft 0 kts 231°
2026-05-06 18:16 53.63226 10.00059 50 ft 3 kts 231°
2026-05-06 18:16 53.63206 10.00017 51 ft 6 kts 231°
2026-05-06 18:17 53.63172 9.99948 51 ft 9 kts 230°
2026-05-06 18:17 53.63123 9.99861 51 ft 12 kts 210°
2026-05-06 18:17 53.63045 9.99911 50 ft 14 kts 151°
2026-05-06 18:17 53.63015 9.99938 51 ft 15 kts 152°
2026-05-06 18:18 53.62905 9.99957 51 ft 6 kts 241°
2026-05-06 18:18 53.62903 9.99950 51 ft 0 kts 242°
2026-05-06 18:23 53.62898 9.99933 52 ft 3 kts 244°
2026-05-06 18:23 53.62886 9.99888 52 ft 5 kts 245°
2026-05-06 18:23 53.62869 9.99825 52 ft 7 kts 245°
2026-05-06 18:23 53.62872 9.99742 50 ft 9 kts 311°
2026-05-06 18:24 53.62938 9.99680 52 ft 16 kts 333°
2026-05-06 18:24 53.63254 9.99410 52 ft 87 kts 332°
2026-05-06 18:24 53.63979 9.98785 48 ft 144 kts 332°
2026-05-06 18:24 53.64965 9.97959 374 ft 161 kts 336°
2026-05-06 18:25 53.65973 9.97104 1103 ft 162 kts 337°
2026-05-06 18:25 53.66978 9.96243 1832 ft 162 kts 339°
2026-05-06 18:25 53.68032 9.95343 2261 ft 180 kts 339°
2026-05-06 18:25 53.69222 9.94337 2567 ft 204 kts 338°
2026-05-06 18:26 53.70543 9.93176 3153 ft 219 kts 331°
2026-05-06 18:26 53.71513 9.91200 3966 ft 233 kts 291°
2026-05-06 18:26 53.71642 9.88349 4475 ft 260 kts 262°
2026-05-06 18:26 53.71160 9.85284 5128 ft 277 kts 250°
2026-05-06 18:27 53.70455 9.82228 6106 ft 281 kts 248°
2026-05-06 18:27 53.69705 9.79164 7076 ft 284 kts 248°
2026-05-06 18:27 53.68969 9.76062 8023 ft 286 kts 250°
2026-05-06 18:27 53.68259 9.72884 8651 ft 292 kts 251°
2026-05-06 18:28 53.67575 9.69667 8851 ft 291 kts 252°
2026-05-06 18:28 53.66921 9.66458 8892 ft 284 kts 253°
2026-05-06 18:28 53.66297 9.63322 8896 ft 281 kts 253°
2026-05-06 18:28 53.65633 9.60235 8893 ft 279 kts 247°
2026-05-06 18:29 53.64789 9.57297 8894 ft 277 kts 245°
2026-05-06 18:29 53.63929 9.54446 8894 ft 270 kts 244°
2026-05-06 18:29 53.63074 9.51631 8895 ft 269 kts 244°
2026-05-06 18:29 53.62224 9.48832 8896 ft 268 kts 244°
2026-05-06 18:30 53.61374 9.46031 8896 ft 268 kts 244°
2026-05-06 18:30 53.60524 9.43233 8897 ft 268 kts 244°
2026-05-06 18:30 53.59676 9.40443 8944 ft 266 kts 244°
2026-05-06 18:30 53.58812 9.37598 9231 ft 283 kts 244°
2026-05-06 18:31 53.57904 9.34611 9491 ft 290 kts 244°
2026-05-06 18:31 53.56983 9.31593 9759 ft 290 kts 244°
2026-05-06 18:31 53.56071 9.28612 9870 ft 283 kts 244°
2026-05-06 18:31 53.55171 9.25676 9891 ft 282 kts 244°
2026-05-06 18:32 53.54269 9.22740 9896 ft 286 kts 244°
2026-05-06 18:32 53.53338 9.19606 9945 ft 315 kts 248°
2026-05-06 18:32 53.52465 9.16084 10361 ft 334 kts 250°
2026-05-06 18:32 53.51623 9.12403 11141 ft 341 kts 250°
2026-05-06 18:33 53.50794 9.08648 12004 ft 345 kts 251°
2026-05-06 18:33 53.49961 9.04852 12914 ft 348 kts 250°
2026-05-06 18:33 53.49114 9.01028 13816 ft 351 kts 251°
2026-05-06 18:33 53.48247 8.97163 14642 ft 355 kts 250°
2026-05-06 18:34 53.47365 8.93279 15460 ft 357 kts 250°
2026-05-06 18:34 53.46470 8.89369 16257 ft 361 kts 249°
2026-05-06 18:34 53.45563 8.85428 17042 ft 364 kts 249°
2026-05-06 18:34 53.44645 8.81438 17826 ft 368 kts 249°
2026-05-06 18:35 53.43717 8.77421 18555 ft 372 kts 249°
2026-05-06 18:35 53.42771 8.73357 19279 ft 375 kts 249°
2026-05-06 18:35 53.41814 8.69265 20039 ft 379 kts 249°
2026-05-06 18:35 53.40845 8.65134 20803 ft 383 kts 249°
2026-05-06 18:36 53.39867 8.60975 21554 ft 386 kts 249°
2026-05-06 18:36 53.38875 8.56758 22281 ft 390 kts 249°
2026-05-06 18:36 53.37872 8.52515 22986 ft 393 kts 249°
2026-05-06 18:36 53.36875 8.48297 23658 ft 397 kts 249°
2026-05-06 18:37 53.35856 8.43986 24266 ft 400 kts 249°
2026-05-06 18:37 53.35161 8.41051 24674 ft 402 kts 249°
2026-05-06 18:37 53.33785 8.35263 25468 ft 406 kts 248°
2026-05-06 18:37 53.32734 8.30853 26060 ft 410 kts 248°
2026-05-06 18:38 53.31673 8.26414 26635 ft 413 kts 248°
2026-05-06 18:38 53.30605 8.21949 27224 ft 415 kts 248°
2026-05-06 18:38 53.29554 8.17545 28514 ft 398 kts 247°
2026-05-06 18:38 53.28537 8.13297 29360 ft 390 kts 247°
2026-05-06 18:39 53.27536 8.09125 29703 ft 384 kts 247°
2026-05-06 18:39 53.26544 8.05004 29884 ft 382 kts 247°
2026-05-06 18:40 53.23576 7.92692 29916 ft 380 kts 247°
2026-05-06 18:40 53.21596 7.84523 29908 ft 379 kts 246°
2026-05-06 18:41 53.19607 7.76369 29916 ft 379 kts 246°
2026-05-06 18:41 53.17607 7.68220 29913 ft 379 kts 246°
2026-05-06 18:42 53.15611 7.60081 29925 ft 380 kts 246°
2026-05-06 18:42 53.13610 7.51935 29929 ft 380 kts 246°
2026-05-06 18:43 53.11598 7.43795 29694 ft 380 kts 246°
2026-05-06 18:43 53.10590 7.39741 29547 ft 380 kts 246°
2026-05-06 18:43 53.09577 7.35674 29407 ft 380 kts 246°
2026-05-06 18:43 53.08565 7.31617 29260 ft 380 kts 246°
2026-05-06 18:44 53.07552 7.27565 29115 ft 379 kts 246°
2026-05-06 18:44 53.06538 7.23522 28974 ft 379 kts 246°
2026-05-06 18:44 53.05525 7.19485 28833 ft 378 kts 246°
2026-05-06 18:44 53.04514 7.15459 28690 ft 377 kts 246°
2026-05-06 18:45 53.03508 7.11443 28555 ft 376 kts 246°
2026-05-06 18:45 53.02503 7.07428 28414 ft 375 kts 246°
2026-05-06 18:45 53.01501 7.03432 28283 ft 375 kts 246°
2026-05-06 18:46 52.99492 6.95436 28011 ft 376 kts 247°
2026-05-06 18:46 52.98485 6.91433 27882 ft 376 kts 247°
2026-05-06 18:46 52.97477 6.87435 27739 ft 375 kts 247°
2026-05-06 18:46 52.96810 6.84796 27655 ft 375 kts 247°
2026-05-06 18:47 52.95463 6.79485 27477 ft 370 kts 247°
2026-05-06 18:47 52.94472 6.75595 27339 ft 362 kts 247°
2026-05-06 18:47 52.93498 6.71776 27220 ft 359 kts 247°
2026-05-06 18:47 52.92501 6.67859 27085 ft 381 kts 247°
2026-05-06 18:48 52.91451 6.63745 26955 ft 392 kts 247°
2026-05-06 18:48 52.90382 6.59569 26789 ft 395 kts 247°
2026-05-06 18:48 52.89347 6.55537 26660 ft 395 kts 247°
2026-05-06 18:48 52.88270 6.51352 26530 ft 395 kts 246°
2026-05-06 18:49 52.87192 6.47168 26313 ft 395 kts 247°
2026-05-06 18:49 52.86480 6.44410 26006 ft 393 kts 246°
2026-05-06 18:49 52.85383 6.40178 25514 ft 412 kts 246°
2026-05-06 18:49 52.84235 6.35754 25056 ft 422 kts 246°
2026-05-06 18:50 52.82835 6.31476 24695 ft 423 kts 236°
2026-05-06 18:50 52.81158 6.27483 24469 ft 423 kts 236°
2026-05-06 18:50 52.79483 6.23505 24257 ft 422 kts 236°
2026-05-06 18:50 52.77806 6.19526 23896 ft 420 kts 235°
2026-05-06 18:51 52.76140 6.15573 23021 ft 419 kts 236°
2026-05-06 18:51 52.74477 6.11628 22087 ft 418 kts 236°
2026-05-06 18:51 52.72821 6.07699 21162 ft 416 kts 236°
2026-05-06 18:51 52.71167 6.03784 20264 ft 415 kts 236°
2026-05-06 18:52 52.69521 5.99901 19388 ft 413 kts 236°
2026-05-06 18:52 52.67876 5.96031 18479 ft 412 kts 236°
2026-05-06 18:52 52.66228 5.92163 17482 ft 411 kts 236°
2026-05-06 18:52 52.64611 5.88371 16461 ft 396 kts 236°
2026-05-06 18:53 52.63050 5.84718 15476 ft 384 kts 236°
2026-05-06 18:53 52.61538 5.81178 14542 ft 374 kts 236°
2026-05-06 18:53 52.60056 5.77712 13606 ft 369 kts 236°
2026-05-06 18:53 52.58575 5.74247 12590 ft 373 kts 236°
2026-05-06 18:54 52.57072 5.70732 11599 ft 377 kts 236°
2026-05-06 18:54 52.55554 5.67192 10841 ft 376 kts 236°
2026-05-06 18:54 52.54065 5.63737 10355 ft 367 kts 236°
2026-05-06 18:54 52.52604 5.60355 9859 ft 359 kts 236°
2026-05-06 18:55 52.51229 5.57025 9330 ft 342 kts 238°
2026-05-06 18:55 52.50005 5.53809 8792 ft 324 kts 240°
2026-05-06 18:55 52.48878 5.50711 8273 ft 309 kts 240°
2026-05-06 18:55 52.47808 5.47734 7757 ft 298 kts 240°
2026-05-06 18:56 52.46764 5.44840 7248 ft 289 kts 240°
2026-05-06 18:56 52.45748 5.42051 6752 ft 283 kts 240°
2026-05-06 18:56 52.44727 5.39279 6258 ft 286 kts 239°
2026-05-06 18:56 52.43687 5.36468 5727 ft 291 kts 239°
2026-05-06 18:57 52.42666 5.33718 5230 ft 295 kts 239°
2026-05-06 18:57 52.41598 5.30850 4911 ft 292 kts 239°
2026-05-06 18:57 52.40548 5.28038 4643 ft 287 kts 239°
2026-05-06 18:57 52.39513 5.25278 4446 ft 280 kts 239°
2026-05-06 18:58 52.38503 5.22583 4420 ft 278 kts 239°
2026-05-06 18:58 52.37488 5.19893 4429 ft 277 kts 238°
2026-05-06 18:58 52.36450 5.17234 4432 ft 277 kts 238°
2026-05-06 18:58 52.35515 5.14853 4369 ft 279 kts 238°
2026-05-06 18:59 52.34474 5.12204 4154 ft 274 kts 238°
2026-05-06 18:59 52.33462 5.09633 3948 ft 264 kts 238°
2026-05-06 18:59 52.32479 5.07144 3740 ft 258 kts 238°
2026-05-06 18:59 52.31517 5.04714 3532 ft 252 kts 238°
2026-05-06 19:00 52.30574 5.02337 3321 ft 246 kts 238°
2026-05-06 19:00 52.29650 5.00019 3137 ft 242 kts 238°
2026-05-06 19:00 52.28731 4.97713 3030 ft 241 kts 238°
2026-05-06 19:00 52.27812 4.95410 3023 ft 243 kts 238°
2026-05-06 19:01 52.26889 4.93097 3026 ft 243 kts 238°
2026-05-06 19:01 52.25968 4.90795 3039 ft 243 kts 238°
2026-05-06 19:01 52.25046 4.88486 3035 ft 242 kts 238°
2026-05-06 19:01 52.24127 4.86176 3045 ft 242 kts 238°
2026-05-06 19:02 52.23214 4.83881 3030 ft 242 kts 238°
2026-05-06 19:02 52.22293 4.81574 3031 ft 242 kts 238°
2026-05-06 19:02 52.21376 4.79270 3038 ft 242 kts 238°
2026-05-06 19:02 52.20475 4.77020 3034 ft 242 kts 238°
2026-05-06 19:03 52.19578 4.74782 3034 ft 228 kts 237°
2026-05-06 19:03 52.18736 4.72688 3026 ft 213 kts 238°
2026-05-06 19:03 52.17941 4.70712 3030 ft 205 kts 238°
2026-05-06 19:03 52.17162 4.68788 3075 ft 203 kts 237°
2026-05-06 19:04 52.16390 4.66879 3031 ft 201 kts 238°
2026-05-06 19:04 52.15621 4.64980 3031 ft 201 kts 238°
2026-05-06 19:04 52.15016 4.62960 3014 ft 197 kts 263°
2026-05-06 19:04 52.15205 4.60826 2847 ft 189 kts 303°
2026-05-06 19:05 52.16095 4.59347 2651 ft 182 kts 329°
2026-05-06 19:05 52.17142 4.58227 2448 ft 177 kts 332°
2026-05-06 19:05 52.18172 4.57180 2230 ft 172 kts 333°
2026-05-06 19:05 52.19161 4.56170 2095 ft 166 kts 333°
2026-05-06 19:06 52.20148 4.55283 2022 ft 157 kts 349°
2026-05-06 19:06 52.21207 4.55257 2026 ft 150 kts 19°
2026-05-06 19:06 52.22073 4.56114 2034 ft 148 kts 47°
2026-05-06 19:06 52.22626 4.57451 2033 ft 138 kts 56°
2026-05-06 19:07 52.23130 4.58750 2031 ft 134 kts 56°
2026-05-06 19:07 52.23625 4.60025 1936 ft 132 kts 56°
2026-05-06 19:07 52.24113 4.61287 1794 ft 131 kts 56°
2026-05-06 19:07 52.24600 4.62545 1632 ft 130 kts 56°
2026-05-06 19:08 52.25079 4.63786 1463 ft 130 kts 55°
2026-05-06 19:08 52.25563 4.65039 1282 ft 130 kts 56°
2026-05-06 19:08 52.26040 4.66286 1104 ft 129 kts 55°
2026-05-06 19:08 52.26523 4.67524 912 ft 129 kts 54°
2026-05-06 19:09 52.27013 4.68757 728 ft 130 kts 55°
2026-05-06 19:09 52.27492 4.70021 546 ft 131 kts 54°
2026-05-06 19:09 52.27972 4.71286 372 ft 132 kts 56°
2026-05-06 19:09 52.28456 4.72550 207 ft 131 kts 53°
2026-05-06 19:10 52.28941 4.73812 41 ft 131 kts 54°
2026-05-06 19:10 52.29413 4.75007 18 ft 114 kts 51°
2026-05-06 19:10 52.29898 4.76276 358 ft 148 kts 56°
2026-05-06 19:10 52.30484 4.77757 1222 ft 157 kts 57°
2026-05-06 19:11 52.31080 4.79254 2368 ft 157 kts 55°
2026-05-06 19:11 52.31738 4.80843 2932 ft 184 kts 56°
2026-05-06 19:11 52.32508 4.82784 3004 ft 216 kts 56°
2026-05-06 19:11 52.33286 4.84790 3023 ft 201 kts 57°
2026-05-06 19:12 52.34004 4.86671 3027 ft 193 kts 60°
2026-05-06 19:12 52.34255 4.88794 3034 ft 196 kts 97°
2026-05-06 19:12 52.33624 4.90781 3038 ft 204 kts 135°
2026-05-06 19:12 52.32294 4.91821 3035 ft 229 kts 170°
2026-05-06 19:13 52.30690 4.91479 3039 ft 240 kts 203°
2026-05-06 19:13 52.29218 4.90151 3034 ft 242 kts 212°
2026-05-06 19:13 52.27797 4.88662 3037 ft 243 kts 213°
2026-05-06 19:13 52.26382 4.87153 3028 ft 243 kts 212°
2026-05-06 19:14 52.24977 4.85640 3030 ft 242 kts 213°
2026-05-06 19:14 52.23595 4.84157 3030 ft 242 kts 213°
2026-05-06 19:14 52.22189 4.82648 3028 ft 242 kts 212°
2026-05-06 19:14 52.20782 4.81135 3038 ft 242 kts 213°
2026-05-06 19:15 52.19378 4.79627 3033 ft 242 kts 213°
2026-05-06 19:15 52.17972 4.78124 3036 ft 242 kts 213°
2026-05-06 19:15 52.16563 4.76613 3038 ft 242 kts 213°
2026-05-06 19:15 52.15156 4.75106 3033 ft 242 kts 214°
2026-05-06 19:16 52.14010 4.73151 3026 ft 240 kts 245°
2026-05-06 19:16 52.13518 4.70580 3032 ft 238 kts 261°
2026-05-06 19:16 52.13218 4.67932 3029 ft 238 kts 262°
2026-05-06 19:16 52.12941 4.65273 3033 ft 238 kts 263°
2026-05-06 19:17 52.12671 4.62672 3022 ft 226 kts 263°
2026-05-06 19:17 52.12418 4.60249 3031 ft 210 kts 263°
2026-05-06 19:17 52.12179 4.57968 3050 ft 201 kts 263°
2026-05-06 19:17 52.12215 4.55753 3038 ft 193 kts 294°
2026-05-06 19:18 52.12891 4.53905 3035 ft 189 kts 310°
2026-05-06 19:18 52.13691 4.52218 3032 ft 188 kts 313°
2026-05-06 19:18 52.14506 4.50555 3036 ft 188 kts 313°
2026-05-06 19:18 52.15322 4.48900 3040 ft 187 kts 313°
2026-05-06 19:19 52.16250 4.47461 3027 ft 182 kts 335°
2026-05-06 19:19 52.17451 4.46990 2922 ft 176 kts
2026-05-06 19:19 52.18585 4.47598 2799 ft 172 kts 35°
2026-05-06 19:19 52.19371 4.49040 2664 ft 172 kts 57°
2026-05-06 19:20 52.19992 4.50647 2532 ft 159 kts 57°
2026-05-06 19:20 52.20542 4.52068 2400 ft 139 kts 57°
2026-05-06 19:20 52.21041 4.53354 2279 ft 132 kts 56°
2026-05-06 19:20 52.21521 4.54592 2170 ft 128 kts 56°
2026-05-06 19:21 52.21994 4.55813 2106 ft 127 kts 56°
2026-05-06 19:21 52.22466 4.57029 2050 ft 126 kts 56°
2026-05-06 19:21 52.22934 4.58237 2040 ft 126 kts 56°
2026-05-06 19:21 52.23404 4.59453 1984 ft 127 kts 56°
2026-05-06 19:22 52.23873 4.60665 1862 ft 126 kts 56°
2026-05-06 19:22 52.24342 4.61876 1715 ft 126 kts 56°
2026-05-06 19:22 52.24806 4.63079 1555 ft 125 kts 55°
2026-05-06 19:22 52.25270 4.64280 1385 ft 125 kts 55°
2026-05-06 19:23 52.25734 4.65481 1212 ft 125 kts 55°
2026-05-06 19:23 52.26196 4.66677 1047 ft 124 kts 55°
2026-05-06 19:23 52.26657 4.67874 860 ft 125 kts 54°
2026-05-06 19:23 52.27119 4.69070 692 ft 126 kts 54°
2026-05-06 19:24 52.27587 4.70284 528 ft 125 kts 54°
2026-05-06 19:24 52.28054 4.71494 351 ft 127 kts 55°
2026-05-06 19:24 52.28517 4.72720 181 ft 125 kts 53°
2026-05-06 19:24 52.28986 4.73925 29 ft 126 kts 54°
2026-05-06 19:25 52.29392 4.74966 -2 ft 87 kts 58°
2026-05-06 19:25 52.29621 4.75569 -1 ft 28 kts 58°
2026-05-06 19:25 52.29734 4.75760 -2 ft 20 kts 29°
2026-05-06 19:25 52.29800 4.75816 -1 ft 0 kts 28°
2026-05-06 19:26 52.29814 4.75829 -1 ft 7 kts 28°
2026-05-06 19:26 52.29870 4.75878 -1 ft 11 kts 28°
2026-05-06 19:26 52.29944 4.75943 -1 ft 11 kts 28°
2026-05-06 19:26 52.30005 4.76018 -1 ft 13 kts 53°
2026-05-06 19:27 52.30058 4.76156 -1 ft 15 kts 58°
2026-05-06 19:27 52.30087 4.76236 -1 ft 0 kts 59°